Simultaneous Nadir Overpasses (SNOs) Predictions

Prediction of SNOs between METOP-B and TERRA Satellite Orbit:

Table of predicted SNOs for the next 14.0 days since TLE Epoch: 10/27/2018
Index Date (METOP-B) Time (METOP-B) Lat,Lon (METOP-B) SZA (METOP-B ) Date (TERRA) Time (TERRA) Lat,Lon (TERRA) SZA (TERRA ) Distance(km) Time Diff (sec)
1 10/29/2018 03:23:35 -81.32, -3.54 82.12 10/29/2018 03:23:46 -81.31, -3.67 82.14 2.42 11
2 10/29/2018 04:14:14 81.33, 164.48 97.98 10/29/2018 04:13:11 81.33, 164.43 97.95 1.09 63
3 10/31/2018 22:07:48 80.97,-116.80 97.22 10/31/2018 22:08:50 80.87,-111.49 97.73 93.65 62
4 10/31/2018 22:57:56 -81.32, 63.05 81.18 10/31/2018 22:57:58 -81.32, 63.00 81.19 0.85 2
5 10/31/2018 23:48:36 81.33,-129.32 98.87 10/31/2018 23:47:24 81.32,-129.31 98.83 0.21 72
6 11/03/2018 17:41:37 81.32, -38.41 99.63 11/03/2018 17:42:43 81.31, -38.37 99.66 0.76 66
7 11/03/2018 18:32:16 -81.32, 129.62 80.28 11/03/2018 18:32:09 -81.33, 129.62 80.28 0.82 7
8 11/06/2018 13:15:58 81.32, 28.15 100.50 11/06/2018 13:16:55 81.32, 28.20 100.53 0.72 57
9 11/06/2018 14:06:38 -81.32,-164.22 79.46 11/06/2018 14:06:22 -81.32,-164.17 79.47 0.86 16
10 11/09/2018 08:50:19 81.32, 94.69 101.32 11/09/2018 08:51:07 81.32, 94.72 101.35 0.58 48




NCC Satellite Simultaneous Nadir Overpasses (SNOs) Prediction Service
